Current Version              Previous Version:    01  02  03  04  05  06  07  08  09  10  11  12  13  14  15  16  17  18  19  20  21  22  23  24  25  26  27  28  29  30  
   31  32  33  34  35  36  37  38  39  40  41  42  43  44  45  46  47  48  49  50  51  52  53  54  55  56  57  58  59  60  

[Printable]
683
ASUS44 KEWX 152102
RWRTX
SOUTH TEXAS REGIONAL WEATHER ROUNDUP
NATIONAL WEATHER SERVICE AUSTIN/SAN ANTONIO TX
400 PM CDT MON SEP 15 2014

NOTE: "FAIR" INDICATED FEW OR NO CLOUDS BELOW 12,000 FEET WITH NO
SIGNIFICANT WEATHER AND/OR OBSTRUCTIONS TO VISIBILITY.

* - THESE STATIONS ARE NOT NWS OR FAA STATIONS...AND ARE NOT SUBJECT
    TO NWS AND FAA QUALITY CONTROL.

TXZ171-172-183>190-152200-
TEXAS HILL COUNTRY AND EDWARDS PLATEAU

CITY           SKY/WX    TMP DP  RH WIND       PRES   REMARKS
JUNCTION       PTSUNNY   87  63  44 E6        30.09F
*LLANO         FAIR      88  64  45 E6        30.10F
BURNET         FAIR      87  65  47 E7        30.09F
*HORSESHOE BAY FAIR      88  63  42 E8        30.07F
*KERRVILLE     FAIR      84  67  55 E6        30.09F
*FREDERICKSBRG FAIR      83  66  55 NE5       30.09F
*ROCKSPRINGS   PTSUNNY   86  63  45 S6        30.14F
*BOERNE STAGE  FAIR      84  64  51 NE3       30.08F
*CASTROVILLE   FAIR      89  63  41 SE9       30.05F HX  90
HONDO          FAIR      91  64  40 VRB3      30.06F HX  92
*UVALDE        FAIR      85  69  57 SW3       30.06F
DEL RIO        FAIR      83  68  60 S8        30.05F
LAUGHLIN AFB   NOT AVBL
CARRIZO SPRGS  CLOUDY    81  68  65 CALM      30.04F
$$

TXZ173-191>194-202-209-217>225-228-152200-
CENTRAL AND SOUTH CENTRAL TEXAS

CITY           SKY/WX    TMP DP  RH WIND       PRES   REMARKS
GEORGETOWN     MOSUNNY   88  66  48 VRB6      30.06F HX  90
AUSTIN/BERGSTM PTSUNNY   87  69  54 NE7       30.04F HX  91
AUSTIN/MABRY   FAIR      86  68  54 CALM      30.06F
*AUSTIN/EXEC   FAIR      86  68  54 SE8       30.06F
*LAGO VISTA    FAIR      88  65  46 NE8       30.08F HX  90
SAN MARCOS     MOSUNNY   88  66  48 E8        30.05F HX  90
NEW BRAUNFELS  FAIR      90  66  45 VRB5      30.03F HX  92
RANDOLPH AFB   FAIR      88  66  48 E9        30.05F HX  90
PT SAN ANTONIO SUNNY     88  66  48 E5        30.03F HX  91
SAN ANTONIO    FAIR      88  67  49 VRB7      30.05F HX  91
STINSON FIELD  FAIR      90  67  46 VRB3      30.02F HX  93
*PLEASANTON    FAIR      86  67  51 NW3       30.04F
*LA GRANGE     FAIR      90  72  55 E6        30.01F HX  98
*GIDDINGS      FAIR      87  69  55 E6        30.08F HX  91
*GONZALES      PTSUNNY   91  71  51 SE3       30.02F HX  98
$$

TXZ163>164-176>182-195>201-210>213-226-227-235-152200-
SOUTHEAST TEXAS

CITY           SKY/WX    TMP DP  RH WIND       PRES   REMARKS
COLLEGE STN    PTSUNNY   88  70  55 W5        30.04F HX  93
*BRYAN         FAIR      88  72  58 NE5       30.04F HX  94
*CALDWELL      FAIR      88  70  55 SE3       30.08F HX  92
*CROCKETT      FAIR      84  75  74 NE8       30.10F HX  92
*BRENHAM       FAIR      90  71  52 SE3       30.04F HX  95
HUNTSVILLE     FAIR      90  69  50 SE3       30.04F HX  94
CONROE         FAIR      91  70  49 MISG      30.04F HX  96
HOUSTON BUSH   FAIR      89  72  56 E12       30.02F HX  96
HOUSTON HOBBY  PTSUNNY   90  73  57 E8G17     30.01F HX  98
*HOUSTON SW AP FAIR      91  70  50 E8        30.02F HX  96
PEARLAND       FAIR      90  74  59 E15       30.03F HX  99
HOUSTON HOOKS  FAIR      91  72  53 VRB3      30.02F HX  98
ELLINGTON FLD  NOT AVBL
SUGAR LAND     FAIR      91  73  55 E8        30.01F HX  99
*HOUSTON EXEC  FAIR      90  90 100 NE7       30.03F HX 129
*CLEVELAND MUN FAIR      91  76  61 E3        30.04F HX 103
*WHARTON       FAIR      91  72  54 NE10      30.01F HX  97
$$

TXZ214>216-236>238-152200-
THE UPPER TEXAS COAST

CITY           SKY/WX    TMP DP  RH WIND       PRES   REMARKS
*ORANGE        FAIR      89  70  54 NE7       30.04F HX  94
PORT ARTHUR    FAIR      90  72  55 E7        30.02F HX  97
GALVESTON      FAIR      86  78  77 E14       30.02F HX  98
ANGLETON       FAIR      87  74  64 E10       30.01F HX  95
*BAY CITY      FAIR      91  76  62 E8        30.00F HX 103
PALACIOS       FAIR      89  74  60 E12       30.00  HX  98
$$

TXZ229>234-239>247-152200-
TEXAS COASTAL BEND AND RIO GRANDE PLAINS

CITY           SKY/WX    TMP DP  RH WIND       PRES   REMARKS
VICTORIA       FAIR      92  71  50 E6        30.00F HX  98
*BEEVILLE      CLOUDY    89  68  50 CALM      30.01F HX  92
ROCKPORT       FAIR      89  73  59 E9        29.99F HX  97
*PORT ARANSAS  FAIR      87  74  65 E13       29.99F HX  95
*PORT LAVACA   FAIR      88  74  62 E5        29.99F HX  96
*INGLESIDE     PTSUNNY   90  71  54 NE9       29.99F HX  96
CORPUS CHRISTI PTSUNNY   89  73  59 VRB7      30.00F HX  97
CORPUS NAS     PTSUNNY   88  75  65 NE13      29.99F HX  97
*ROBSTOWN      PTSUNNY   90  70  51 E3        30.00F HX  95
ALICE          FAIR      91  71  51 VRB6      30.00F HX  97
KINGSVILLE NAS PTSUNNY   90  74  59 VRB7      30.00F HX  99
COTULLA        FAIR      86  66  51 N7        30.04F
*FAITH RANCH   PTSUNNY   82  66  57 S3        30.07F
LAREDO         PTSUNNY   86  68  54 CALM      30.05F
$$

TXZ248>255-152200-
DEEP SOUTH TEXAS

CITY           SKY/WX    TMP DP  RH WIND       PRES   REMARKS
BROWNSVILLE    TSTM      79  78  97 W6        29.98F FOG
PORT ISABEL    LGT RAIN  84  76  76 N12       29.98S HX  93
*SOUTH PADRE   CLOUDY    81  79  94 N16       29.97F VSB 1
HARLINGEN      CLOUDY    85  76  74 N8        29.97F HX  94
*HEBBRONVILLE  FAIR      86  66  51 W5        30.04F
MCALLEN        FAIR      86  72  62 NW3       29.99F HX  92
*WESLACO       PTSUNNY   87  72  61 NW10      29.98F HX  94
FALFURRIAS     PTSUNNY   83  66  57 NE7       30.00S
EDINBURG       FAIR      88  71  56 N5        29.99F HX  94
*ZAPATA        FAIR      88  65  47 CALM      30.01F HX  90
$$

TXZ213>215-236>238-242>244-246-247-251-254-255-152200-
CMAN STATIONS

STATION/POSITION TIME  TEMP    WIND        PRES    WAVE
                       AIR SEA DIR/SP/G            HT/PER
                 (UTC) (F)     (DEG/KT/KT) (MB)    (FT/S)
SABINE PASS      2000   85 83  130/ 12/ 15 1016.9
SEA RIM ST PARK  2000   84     110/ 13/ 15 1017.6
NORTH JETTY/GLS  2000   83 83  120/ 15/ 18   N/A
EAGLE POINT      2000   83 81  120/  5/  6 1017.0
MORGANS POINT    2000   87     130/  7/ 10 1016.7
PORT O`CONNOR    2000           40/  7/  9   N/A
PORT ARANSAS     2000   82 84   40/ 12/ 13 1017.0
MALAQUITE BEACH  2000   82 84   40/ 11/ 14 1015.3
BAFFIN BAY       2000   83 81   30/ 10/ 12 1015.8
PORT ISABEL      2000   79 82  350/  6/ 15 1015.3
$$

GMZ080-GMZ150>470-152200-
OFFSHORE BUOY REPORTS

STATION/POSITION TIME  TEMP    WIND        PRES    WAVE
                       AIR SEA DIR/SP/G            HT/PER
                 (UTC) (F)     (DEG/KT/KT) (MB)    (FT/S)
20 E GALVESTON   2100   83 85   80/ 16/ 17 1016.2    3/ 5
90 E PT ARANSAS  2100   83 85   40/ 12/ 14 1015.3    4/ 6
35 NE PT MANSFLD 2000   81 85   10/ 14/ 16 1015.0    5/ 7
200 E PT ISABEL  2000   84 86  190/ 16/ 17 1014.9    4/ 6
$$